カタログに戻る

IONOSFERA-M 04

運用中科学SSO
NORAD 64877·PAYLOAD·🇷🇺 Russia

打ち上げ Jul 25, 2025 から Vostochny Cosmodrome

Loading…

次のパス (今後24時間)

TLE

最新Source: Space-Track

元期: Sep 14, 2026, 22:55 UTC

1 64877U 25155B   26257.95532757  .00000033  00000-0  34561-4 0  9994
2 64877  98.6131 217.5578 0000831  48.7647 311.3602 14.21501908 59152

AllMySatでIONOSFERA-M 04をリアルタイム追跡

Download on the App Store